Theta_e
324 325 325 324 321 315 308 307 306 308 313 314 311 307 306 306 306 306 305 305 304 304 304 304 305 305 306 305 302 305 306 308 308 309 308 311 310 309 314 310 306 306 308 308 310 318 324 317 320 322 318 319 318 324
325 324 325 323 319 309 308 307 306 308 313 314 311 307 307 306 306 305 306 305 305 304 304 305 305 306 306 306 306 306 308 307 307 305 304 307 310 313 315 316 312 314 312 315 316 316 316 316 317 317 317 318 319 322
324 324 324 322 311 309 308 307 306 307 313 314 310 307 307 306 306 305 304 304 304 303 304 305 308 308 308 309 309 307 308 308 308 305 303 304 308 308 316 316 317 315 311 313 313 315 314 316 316 317 317 319 321 321
324 324 323 315 309 308 308 307 306 307 313 313 310 307 307 306 306 306 306 305 304 304 303 306 307 308 309 309 309 309 309 307 307 308 304 304 308 309 315 314 315 313 312 313 313 312 315 316 314 316 318 320 322 322
324 324 320 313 310 308 308 307 306 307 313 313 310 307 307 307 307 308 308 307 306 304 303 305 307 307 309 309 310 310 308 306 307 310 309 309 310 311 311 312 312 310 314 315 315 311 313 313 313 316 318 319 320 320
323 324 320 315 310 308 308 307 306 309 313 313 310 307 307 308 308 308 309 308 306 304 304 302 308 309 309 310 311 311 309 306 310 311 311 311 309 310 312 314 309 310 311 311 311 311 313 313 313 316 319 318 319 320
323 323 320 316 309 308 307 306 308 313 313 313 309 307 307 307 307 308 307 306 306 305 305 305 304 309 309 310 311 311 311 311 312 312 311 308 308 307 309 311 308 309 310 311 312 312 313 313 314 315 318 320 318 319
322 322 318 314 308 308 307 307 314 313 313 311 308 307 306 307 308 309 309 307 306 306 306 305 304 307 309 311 311 310 310 310 309 309 309 309 308 307 308 308 309 309 309 310 312 312 312 313 314 315 317 321 321 319
322 321 315 309 308 308 307 312 313 313 313 309 308 308 307 308 309 311 310 306 306 307 306 307 303 305 309 310 310 310 310 307 309 307 308 308 309 309 308 309 309 308 308 309 312 311 311 312 313 314 316 318 320 320
321 314 310 308 308 307 308 313 313 313 310 309 309 309 310 311 311 310 307 307 307 307 307 304 307 306 309 309 308 308 308 304 306 306 307 304 308 307 309 309 308 309 310 310 310 310 309 309 310 311 313 316 316 318
317 313 308 308 307 310 314 314 313 312 310 310 310 311 312 311 310 309 309 309 309 308 308 308 309 308 309 308 307 309 304 304 305 308 307 305 303 307 308 309 308 307 307 307 308 307 307 308 309 309 310 313 315 316
315 309 308 307 312 314 315 314 313 311 312 312 313 312 311 310 310 310 310 311 310 312 310 310 310 310 309 310 309 308 309 309 310 308 309 306 302 308 308 309 306 306 305 306 306 306 306 306 308 308 309 311 312 314
309 308 308 308 315 316 315 314 312 312 312 313 313 312 312 311 311 313 313 309 309 313 312 310 309 310 309 310 308 307 312 312 310 310 312 307 307 307 307 309 305 303 302 302 303 304 305 306 307 307 307 308 310 311
309 308 308 312 317 317 316 314 312 312 313 314 314 312 315 317 316 317 315 315 316 316 313 311 310 310 311 311 309 311 309 307 307 309 311 307 308 307 306 309 307 304 303 302 301 301 300 300 300 302 304 306 307 308
308 308 314 318 318 317 316 313 312 312 313 315 315 310 312 316 316 317 317 315 316 316 312 312 311 311 312 311 308 309 308 309 304 303 309 309 308 306 305 305 308 307 304 304 304 302 301 301 300 299 299 299 299 300
309 314 319 317 315 318 316 313 312 313 314 315 315 314 315 312 313 314 314 313 315 313 314 311 308 311 312 312 310 309 307 303 304 305 309 309 306 305 305 304 304 307 307 306 306 306 306 303 301 300 300 299 299 299
316 320 312 309 316 316 315 312 313 314 315 317 315 316 316 314 313 314 313 313 314 314 317 314 315 314 313 313 311 307 307 307 309 309 308 305 305 304 303 303 303 305 309 307 307 306 305 306 305 303 301 300 299 299
308 307 306 310 317 315 313 315 315 317 317 318 317 316 314 313 314 313 312 313 314 315 315 312 309 309 309 310 306 304 307 309 309 307 304 303 303 302 303 304 305 307 308 306 303 301 302 303 303 303 303 302 300 299
308 307 307 309 314 316 316 316 315 317 318 318 318 315 314 314 312 311 312 314 313 311 309 307 304 304 303 303 305 306 304 304 303 302 302 303 303 303 304 305 307 307 305 302 301 301 300 300 301 302 302 302 302 300
307 316 313 310 309 314 317 318 319 319 317 316 314 314 314 313 311 311 312 310 309 308 306 303 302 303 305 305 304 304 303 302 302 303 303 303 304 303 303 304 303 303 302 301 300 300 300 300 300 300 300 300 300 301
307 315 317 315 313 313 316 318 319 317 316 314 313 313 312 313 310 309 309 308 308 306 304 304 304 304 303 303 302 302 301 301 302 302 302 302 301 301 300 299 299 298 297 297 298 298 298 298 299 299 299 300 300 300
311 319 321 319 317 318 318 317 318 318 316 314 313 314 315 313 311 307 307 307 306 306 305 303 303 302 302 303 302 301 301 301 301 301 301 300 299 299 298 297 297 297 297 297 297 296 297 297 298 299 299 299 299 300
323 322 322 321 318 318 316 316 318 318 314 315 315 313 314 310 306 306 301 300 302 305 303 302 303 302 302 301 301 301 301 300 300 300 299 299 298 298 297 297 296 296 297 297 297 297 296 296 297 298 298 299 299 300
323 322 323 320 318 316 315 314 314 315 315 315 315 315 311 308 304 304 303 300 303 303 303 303 302 301 300 301 301 301 300 299 299 299 299 298 298 297 296 296 296 296 296 297 297 297 297 297 296 296 296 297 298 299
321 317 318 316 316 318 317 315 315 316 315 314 313 312 310 306 305 306 304 301 302 302 303 302 303 304 302 300 300 299 299 299 299 299 298 298 297 296 296 297 297 296 296 297 298 298 297 297 297 297 298 298 297 298
313 317 317 317 315 316 316 316 315 315 315 314 312 311 307 306 306 306 304 303 303 304 304 305 304 302 302 300 299 299 299 299 299 298 298 297 296 296 297 297 297 298 298 298 298 298 298 298 298 298 297 298 298 298
315 317 317 316 316 316 315 316 314 312 313 315 313 311 307 306 306 305 304 303 304 305 305 303 303 301 300 299 298 298 298 298 298 297 297 297 298 297 297 297 297 297 297 298 298 298 297 298 298 298 298 297 298 298
316 316 314 317 314 312 311 309 308 308 307 309 308 308 307 306 303 304 304 305 305 304 301 300 299 298 298 298 298 298 297 297 298 297 297 297 297 297 297 297 297 297 298 297 297 298 298 298 297 297 297 298 298 297
318 317 314 312 311 309 308 307 305 306 307 308 306 304 304 305 304 304 306 306 304 303 303 300 298 298 298 298 298 296 295 296 297 297 296 297 297 297 297 297 297 297 297 297 297 296 296 297 297 297 297 297 297 297
314 314 312 309 308 305 305 305 305 305 307 306 305 304 305 305 306 306 303 302 302 301 302 303 300 299 298 299 296 295 296 297 297 298 298 298 298 297 297 297 297 297 297 297 297 297 297 297 297 297 297 296 296 296
313 308 307 307 305 305 305 305 304 304 304 304 305 306 306 306 303 303 303 301 301 300 302 299 298 299 299 297 296 296 297 297 297 298 299 299 299 299 298 298 299 298 298 297 297 297 298 298 298 298 297 297 297 297
314 308 307 307 305 306 306 304 305 305 305 306 306 306 306 306 306 302 300 300 300 300 299 299 299 299 299 297 298 298 298 298 299 299 299 299 299 299 299 299 299 298 298 299 298 298 298 298 297 297 297 297 297 298
312 310 308 310 310 311 308 308 307 306 305 304 304 305 305 304 303 304 303 302 300 300 299 299 299 298 297 297 298 299 299 299 299 299 299 299 299 299 299 299 299 298 298 298 297 297 297 297 297 297 296 297 297 297
Wind_Speed
38 32 17 15 10 12 14 18 21 21 11 11 7 4 5 4 4 3 3 2 1 1 7 5 3 4 4 4 1 5 5 3 1 3 3 3 4 4 3 6 6 7 7 5 3 3 3 23 3 5 7 18 18 19
36 21 15 11 9 10 13 17 19 19 10 9 4 3 3 3 3 3 1 1 3 4 5 6 10 11 14 15 13 4 4 6 9 2 3 3 3 2 4 4 1 3 2 3 2 4 5 9 11 11 10 11 16 16
21 17 18 9 8 10 13 16 18 19 9 7 2 3 4 4 3 4 2 1 4 3 5 4 3 5 6 6 7 7 7 5 6 12 5 2 4 1 3 2 3 4 8 1 2 2 1 12 11 20 17 17 15 19
20 18 12 8 8 10 13 16 18 18 8 4 1 5 6 8 7 5 5 4 4 2 2 2 5 6 5 9 14 20 25 17 15 14 3 2 2 5 1 4 3 5 2 4 4 4 1 12 20 23 20 21 20 22
14 15 8 7 9 11 14 17 18 17 6 3 4 7 9 8 5 1 1 3 5 2 2 8 6 5 5 13 16 15 14 15 3 5 1 2 1 3 2 3 3 10 3 2 3 2 2 7 13 16 21 24 24 24
15 13 9 9 10 12 15 18 20 15 5 4 6 8 10 8 4 1 1 1 1 1 2 3 3 2 6 7 7 10 7 4 2 3 4 6 10 5 3 2 11 16 11 13 4 7 1 12 5 14 15 17 19 20
13 12 11 10 11 13 17 20 20 5 4 5 8 9 9 8 4 2 1 3 1 1 1 5 9 2 10 4 4 6 9 8 5 4 5 6 10 9 3 3 18 19 11 15 10 6 3 13 9 13 10 14 15 17
11 11 9 9 11 14 18 20 8 2 2 7 8 8 8 7 5 5 4 1 1 0 1 1 5 5 8 4 3 8 4 5 9 4 3 6 7 5 3 12 19 19 14 16 13 9 6 9 11 11 11 7 11 22
9 8 8 9 11 15 17 12 1 2 5 10 9 8 7 4 3 3 3 3 5 3 2 2 2 3 6 6 4 3 4 3 4 4 3 3 3 4 4 10 21 19 12 15 12 9 10 11 13 14 13 12 8 15
8 7 6 8 12 15 14 1 1 5 11 11 9 3 2 2 4 3 2 2 3 2 3 4 3 2 3 4 3 1 5 2 2 2 2 3 3 12 14 12 15 15 11 10 13 16 15 13 13 13 14 13 14 11
9 6 6 9 13 13 1 2 4 9 14 8 4 3 3 5 4 2 2 4 4 2 5 5 5 2 1 2 0 3 1 2 3 3 3 3 3 5 8 12 14 15 16 14 9 8 9 9 10 11 11 11 11 11
6 4 6 10 10 2 2 3 7 12 7 5 4 5 6 3 2 2 2 1 3 3 4 3 3 3 0 1 2 2 2 1 2 1 2 2 3 7 8 10 16 16 18 20 21 16 13 12 11 9 10 10 10 7
4 4 6 8 2 2 1 5 11 10 8 5 3 3 3 3 1 3 2 3 2 4 8 6 2 2 2 1 3 2 2 2 2 2 2 2 3 5 7 7 13 16 19 21 22 21 21 22 22 21 20 17 13 12
3 5 7 2 1 1 2 7 11 11 3 2 3 1 3 3 3 4 4 3 4 5 12 10 5 2 2 2 2 3 0 1 2 1 1 2 3 4 6 7 9 13 16 20 23 25 27 27 26 24 24 22 23 23
3 5 2 2 1 1 2 10 12 9 2 1 1 2 4 5 7 6 5 3 2 5 17 9 6 3 1 2 1 2 2 1 2 2 1 1 3 4 5 5 4 7 11 13 17 20 22 23 26 27 27 27 26 23
2 2 3 2 3 1 6 14 14 5 1 2 3 3 4 3 4 4 2 2 1 12 9 6 4 1 1 2 2 1 3 1 2 3 5 3 3 4 5 4 4 3 5 7 11 11 12 14 17 20 22 24 26 27
2 1 3 3 2 3 10 14 7 3 2 3 6 8 5 4 3 2 4 2 2 9 1 2 2 2 4 2 3 1 4 3 10 11 6 3 2 4 4 4 3 4 5 6 7 9 7 5 6 9 13 17 20 22
1 2 3 1 3 9 11 4 4 4 6 9 4 8 8 3 1 3 3 1 3 4 3 2 3 2 2 3 2 2 5 15 14 10 6 2 1 5 5 5 5 11 9 5 6 7 7 5 4 5 5 7 10 13
4 6 3 6 8 4 3 3 5 4 10 3 6 6 5 1 1 5 4 6 5 4 5 3 4 2 1 2 9 17 17 16 12 8 6 6 3 3 6 7 8 7 5 7 5 8 9 10 10 4 3 4 5 7
8 4 3 8 9 3 3 3 4 4 2 2 5 7 3 3 2 4 9 9 8 5 8 4 2 4 7 17 15 17 14 11 11 15 15 15 14 13 11 8 7 5 3 4 7 8 9 9 9 10 10 7 7 5
6 5 5 6 6 7 3 3 2 3 3 6 8 3 1 5 9 13 14 10 11 7 6 9 18 18 16 15 17 13 12 10 7 6 15 15 11 8 8 7 5 4 8 8 8 8 9 10 10 8 8 8 8 8
4 7 2 5 3 1 2 3 1 2 4 3 3 6 8 8 11 16 12 17 7 9 7 12 17 15 13 12 14 13 11 9 8 12 11 8 7 6 6 6 6 6 5 6 7 9 9 8 8 8 12 14 14 11
7 6 1 1 2 2 2 4 1 2 2 2 3 4 4 5 6 6 6 8 6 13 19 20 19 12 13 16 13 13 8 5 8 8 7 5 4 4 5 5 6 6 4 6 8 9 8 9 7 8 8 10 7 7
3 1 1 1 1 1 2 4 3 3 2 3 3 4 4 4 5 7 3 10 7 16 18 18 16 9 12 10 7 5 5 5 5 6 3 2 1 2 4 5 5 6 4 6 8 9 9 8 9 10 9 9 8 8
1 5 3 4 4 1 3 3 4 3 3 3 3 4 4 4 3 3 2 4 12 16 16 15 4 8 3 5 7 6 3 2 1 2 4 4 1 2 2 4 6 5 5 8 12 11 10 8 10 11 11 11 10 8
5 7 4 4 4 3 2 2 4 2 1 3 3 4 4 4 3 3 5 12 14 8 2 3 4 3 3 3 3 1 1 2 3 4 3 3 0 3 5 8 9 7 6 8 8 9 8 11 11 11 12 11 11 11
4 3 5 6 4 2 4 5 5 6 5 3 2 3 2 3 3 3 9 8 4 3 2 1 2 6 6 5 4 3 3 3 4 2 5 3 3 5 5 6 9 10 10 7 9 13 13 12 13 14 15 13 11 11
4 4 4 6 8 11 4 5 4 3 3 4 3 3 2 2 3 9 7 6 6 5 6 10 12 10 8 4 4 6 6 1 4 4 3 4 6 7 7 7 9 10 8 10 11 11 9 12 14 15 14 13 12 12
6 4 5 8 6 7 8 5 6 3 3 1 3 3 4 5 14 12 8 4 3 4 11 15 12 10 5 4 7 8 8 8 3 1 5 9 11 12 11 9 11 10 10 9 10 11 11 11 12 13 13 13 12 11
5 5 6 7 5 5 7 7 6 6 6 7 11 20 21 17 12 8 6 4 5 3 4 10 12 6 3 4 5 8 11 11 12 12 13 13 13 13 14 14 14 14 13 12 12 11 11 12 13 15 16 16 15 14
6 8 7 6 5 8 15 17 18 20 24 25 24 23 16 10 7 5 6 7 3 4 8 14 10 5 1 4 7 7 8 8 8 9 8 9 9 10 10 12 13 14 13 11 9 10 13 15 16 15 14 14 16 18
5 5 7 4 4 8 8 9 8 9 10 12 9 11 9 4 2 4 11 6 2 7 8 9 8 7 5 8 8 9 9 8 7 6 7 9 11 12 15 16 16 16 15 13 11 13 14 16 15 11 10 10 11 14
19 15 13 8 5 5 7 5 3 3 2 3 4 9 7 5 4 8 10 11 6 2 7 7 6 6 8 10 8 8 7 4 3 5 8 11 14 13 12 11 12 13 13 11 8 7 11 13 13 14 15 13 13 15
Wind_Direction
318 314 313 308 286 306 324 334 338 341 330 335 351 50 112 128 141 104 88 67 147 275 267 243 228 203 225 241 197 323 339 39 288 228 225 233 213 234 264 133 181 159 152 194 188 235 207 350 16 77 307 317 324 339
319 309 310 285 282 309 322 333 339 340 324 332 353 100 132 135 146 107 91 341 295 272 262 258 264 269 270 272 269 250 223 205 226 213 229 253 229 229 269 150 149 148 181 163 162 138 99 36 69 19 4 347 351 2
322 315 310 262 289 309 323 332 338 339 315 322 350 135 141 126 124 135 131 242 304 327 293 272 208 265 289 298 261 242 266 212 216 235 213 230 250 141 203 117 166 137 50 161 115 26 35 50 35 31 27 23 38 45
299 304 284 264 295 311 321 330 336 337 306 303 199 159 153 133 117 91 58 21 24 355 323 247 249 258 278 303 296 291 286 263 295 305 140 230 251 244 62 65 62 355 13 333 71 27 171 359 20 24 31 54 62 53
308 312 247 269 298 313 320 328 331 331 285 260 187 173 170 155 150 144 28 343 346 43 283 294 304 214 292 312 320 317 301 278 279 323 234 252 228 321 6 74 62 345 0 12 88 55 315 301 10 18 43 55 58 53
301 300 244 272 303 314 321 325 327 323 243 219 183 181 180 169 164 259 327 308 282 351 352 318 298 236 334 332 7 21 23 91 149 11 349 13 13 24 49 85 355 11 40 36 349 337 218 358 58 25 33 46 59 61
285 292 238 269 303 313 320 326 326 295 207 199 178 180 184 181 188 253 299 333 218 83 3 307 313 323 350 353 350 13 61 52 52 58 31 9 5 31 31 38 334 9 27 20 26 54 49 31 5 16 24 30 47 60
281 274 226 273 299 313 324 330 323 181 183 165 160 166 179 195 226 259 229 228 177 314 248 294 281 326 3 351 4 20 40 51 36 67 49 7 5 36 44 337 352 3 6 20 39 36 23 19 25 31 25 23 18 39
265 222 241 282 305 318 327 332 206 153 146 148 149 161 181 220 238 222 208 193 202 265 272 249 173 275 344 9 359 357 8 59 31 58 48 54 20 33 280 328 357 13 12 355 22 32 29 25 19 28 28 37 17 14
214 218 266 298 310 319 329 273 165 141 138 138 147 178 200 217 196 189 161 190 218 236 235 240 227 263 340 348 19 31 27 42 53 331 1 60 76 43 20 31 22 24 24 26 24 13 13 13 8 17 33 32 32 27
204 241 287 308 318 323 219 170 164 142 139 148 176 177 200 189 177 194 218 210 183 243 223 238 243 263 356 63 311 25 130 34 56 326 71 20 7 7 24 30 27 30 33 37 43 29 28 12 5 10 28 39 34 38
210 259 306 326 338 76 128 181 156 148 152 159 156 170 172 184 183 233 211 203 219 245 195 201 218 222 131 20 76 22 99 61 82 64 65 29 259 18 42 48 30 45 49 50 49 49 44 42 43 41 40 37 42 36
215 290 324 337 60 345 253 161 154 149 146 156 184 176 166 160 198 219 202 288 262 215 189 177 153 168 177 39 78 83 77 63 127 46 69 217 355 27 47 65 57 60 58 57 56 55 56 58 58 57 59 57 50 50
256 308 323 338 340 296 159 163 170 159 161 178 195 236 225 179 225 190 203 228 236 213 176 170 124 97 97 74 354 81 337 89 65 71 78 264 20 40 52 65 55 63 66 59 56 57 57 56 56 56 53 53 55 50
294 325 107 96 26 118 165 183 168 164 176 167 223 229 224 274 278 278 260 279 270 205 161 114 70 62 101 102 69 110 53 77 130 173 237 150 59 70 61 56 61 58 67 65 54 47 48 53 56 59 56 53 51 49
346 131 154 1 1 295 193 180 161 160 183 217 229 247 245 337 336 329 329 1 302 165 145 123 139 232 146 117 89 83 122 218 234 202 179 173 55 50 30 22 24 81 66 50 47 39 30 33 42 48 52 52 46 43
122 174 284 314 303 187 150 162 170 204 225 225 244 238 240 266 265 321 286 281 91 177 150 182 131 147 137 133 112 191 164 184 157 149 127 94 60 17 31 29 0 114 126 61 28 12 15 12 16 28 40 47 50 50
232 322 337 173 176 149 144 169 190 212 235 236 229 216 202 224 294 339 326 213 170 181 187 130 115 75 70 121 211 201 128 121 133 135 138 193 336 35 46 56 52 138 118 78 59 57 40 12 349 359 17 33 44 47
318 315 261 178 168 155 197 219 213 245 230 238 223 203 209 184 78 348 103 130 114 104 115 63 63 72 162 137 135 131 127 126 122 120 120 112 82 67 105 96 92 110 113 107 72 36 31 25 15 330 346 355 0 24
322 307 237 194 189 214 233 214 221 264 262 279 195 181 165 132 126 70 105 89 79 59 45 48 52 76 107 132 130 134 131 140 137 122 123 128 125 111 91 85 87 83 49 12 357 352 351 356 20 32 29 10 353 333
292 256 206 194 209 230 296 323 308 347 41 19 2 75 88 138 51 43 34 44 56 36 43 89 100 108 103 110 134 106 121 128 126 124 139 135 117 104 102 87 67 24 347 340 333 334 342 355 355 359 1 352 344 335
233 177 193 191 208 235 277 347 335 53 80 95 87 359 32 36 34 19 30 47 47 23 48 103 104 96 99 120 128 119 105 91 105 139 141 138 132 113 89 55 30 36 37 36 30 21 14 14 8 8 355 344 339 327
149 172 223 199 129 186 1 1 110 46 90 126 111 102 67 73 37 41 69 30 22 74 87 100 105 103 107 119 112 102 85 74 131 150 149 135 106 70 31 35 38 27 36 34 18 15 13 9 8 355 356 6 7 50
138 118 91 103 24 129 50 44 43 48 52 43 36 64 57 76 60 60 60 1 84 106 100 109 108 85 102 120 126 121 115 95 121 159 163 173 132 70 44 39 41 29 26 353 342 341 346 336 339 340 342 342 340 327
90 30 26 24 23 24 51 36 20 38 62 45 79 55 75 72 67 63 53 30 107 128 120 148 270 339 74 110 135 150 132 129 91 184 184 192 119 84 88 36 2 329 341 346 352 351 344 348 346 349 348 341 316 311
70 27 44 12 8 51 25 34 25 4 43 80 69 100 83 83 72 77 143 144 136 127 138 349 356 89 120 161 148 131 164 207 237 231 211 184 191 350 342 340 349 5 357 340 338 346 349 350 349 346 349 343 335 321
75 28 44 36 22 40 65 54 37 49 39 49 104 90 77 75 90 170 169 185 140 76 42 327 199 159 148 142 106 55 3 287 271 232 137 106 30 10 356 349 347 343 339 324 333 328 324 326 335 336 333 332 329 325
73 45 65 28 55 41 57 40 30 27 0 8 51 59 73 83 173 164 158 140 122 141 153 143 143 147 137 109 53 19 3 41 160 157 100 25 5 2 355 343 342 345 341 341 345 348 341 333 336 340 341 337 332 327
56 61 80 42 54 48 38 26 0 341 337 48 99 123 135 118 132 141 138 147 147 169 188 181 171 164 147 57 14 18 59 82 143 133 30 36 31 26 20 11 359 5 4 5 352 353 358 5 8 5 358 349 343 339
43 57 85 48 51 34 13 19 43 65 105 118 115 120 119 123 130 146 156 140 126 109 163 190 172 155 97 29 55 87 93 89 91 84 76 65 50 41 36 34 34 34 36 39 38 40 36 27 18 10 9 11 8 0
99 79 70 63 74 98 93 88 93 105 113 117 125 121 120 119 122 151 163 158 144 182 170 166 163 153 94 95 108 114 99 105 106 79 59 40 24 11 4 4 7 11 13 16 21 14 8 8 7 4 6 15 24 25
88 109 120 102 137 132 103 99 94 98 99 120 125 139 137 137 92 173 173 175 166 183 185 188 184 178 156 143 119 113 105 101 88 51 25 14 4 354 346 343 342 341 339 331 330 335 340 341 339 333 337 342 339 337
111 115 115 121 143 167 168 146 130 143 134 177 199 201 209 213 231 206 218 221 230 89 158 158 157 161 154 152 136 130 132 112 48 7 353 344 335 332 330 336 342 341 342 330 328 346 357 353 359 0 1 351 345 346